ロニオス彗星

C/2006 S3 ( LONEOS )

English version
Home page
Updated on March 3, 2018

---------------------------------------------------------------------

・ プロフィール

発見日 2006年9月19日
発見光度 19.0等
発見者 Lowell Observatory Near-Earth Object Search

・ 写真集

・ 軌道要素

Epoch 2012 Apr. 23.0 TT = JDT 2456040.5
T 2012 Apr. 16.31789 TT                                 MPCW
q   5.1311374            (2000.0)            P               Q
z  -0.0006881      Peri.  140.12833     -0.21553971     -0.96493230
                   Node    38.37058     -0.94614685     +0.24432296
e   1.0035307      Incl.  166.03275     -0.24155490     -0.09597890
From 6462 observations 2006 Aug. 29-2017 May 19, mean residual 0".9.
     Nongravitational parameters Y1 = +5.60, Y2 = +10.0909, Y3 = -0.4713.

・ 星図

・ 光度変化

        m1 = 4.0 + 5 logΔ +  7.5 log r(t -  300)  [   ,300]  (              〜2013年 2月10日)
        m1 = 0.8 + 5 logΔ + 12.0 log r(t -  300)  [300,   ]  (2013年 2月10日〜              )

---------------------------------------------------------------------

軌道要素はM.P.E.C. 2017-L52に掲載されたものです。
星図は StellaNavigator Ver.2.0 for Windows (アストロアーツ編著 / アスキー出版局刊) で作成したものです。
光度グラフはComet for Windowsで作成したものです。

---------------------------------------------------------------------

Copyright(C) Seiichi Yoshida (comet@aerith.net). All rights reserved.